Location: Allie Creek
(37.5926°N, 89.8526°W)
Time: 16:24:10
(UTC+00:00)

Meteor 1-27 Rocket - Pass Details

Date: 16 April 2024
Orbit: 829 x 909 km, 81.3° (Epoch: 26 May)

Event Time Altitude Azimuth Distance (km) Brightness Sun altitude
Exits shadow 09:34:46 30° 278° (W) 1,533 4.6 -20.4°
Maximum altitude 09:35:11 30° 286° (WNW) 1,523 4.7 -20.4°
Drops below altitude 10° 09:40:10 10° 347° (NNW) 2,513 6.4 -19.5°
Sets 09:42:53 0° 358° (N) 3,441 7.3 -19.1°
